Weather History for Fayetteville, AR

Change the Weather History Date:

Saturday, December 28, 2013

  Actual Average Record
Temperature  
Mean Temperature 38 °F 36 °F  
Max Temperature 54 °F 46 °F 66 °F (1984)
Min Temperature 21 °F 25 °F 9 °F (1983)
Degree Days  
Heating Degree Days 27 29  
Month to date heating degree days 840 765  
Since 1 July heating degree days 1729 1594  
Moisture  
Dew Point 27 °F    
Average Humidity 69    
Maximum Humidity 100    
Minimum Humidity 38    
Precipitation  
Precipitation 0.00 in 0.09 in 0.84 in (1954)
Month to date precipitation 4.09 2.96  
Year to date precipitation 46.62 48.23  
Sea Level Pressure  
Sea Level Pressure 30.14 in    
Wind  
Wind Speed 2 mph (South)    
Max Wind Speed 14 mph    
Max Gust Speed 17 mph    
Visibility 10 miles    
Events      
T = Trace of Precipitation, MM = Missing Value Source: NWS Daily Summary

Daily Weather History Graph

Daily Weather History Graph

Search for Another Location

Airport:

Trip Planner

Search our weather history database for the weather conditions in past years. The results will help you decide how hot, cold, wet, or windy it might be!

Date:

Astronomy

Dec. 28, 2013 Rise Set
Actual Time 7:26 AM CST 5:10 PM CST
Civil Twilight 6:57 AM CST 5:39 PM CST
Nautical Twilight 6:25 AM CST 6:11 PM CST
Astronomical Twilight 5:54 AM CST 6:42 PM CST
Moon 3:08 AM CST (12/28) 1:58 PM CST (12/28)
Length of Visible Light 10h 41m
Length of Day
9h 44m
Waning Crescent, 19% of the Moon is Illuminated
Dec 28
Waning Crescent
Jan 1
New
Jan 7
First Quarter
Jan 15
Full
Jan 23
Last Quarter

Hourly Weather History & Observations

Time (CST) Temp. Dew Point Humidity Pressure Visibility Wind Dir Wind Speed Gust Speed Precip Events Conditions
12:53 AM 25.0 °F 21.9 °F 88% 30.32 in 10.0 mi Calm Calm - N/A   Clear
1:53 AM 25.0 °F 21.9 °F 88% 30.30 in 10.0 mi Calm Calm - N/A   Clear
2:53 AM 21.9 °F 21.0 °F 96% 30.29 in 10.0 mi Calm Calm - N/A   Clear
3:53 AM 23.0 °F 21.0 °F 92% 30.28 in 10.0 mi Calm Calm - N/A   Clear
4:53 AM 21.9 °F 21.0 °F 96% 30.27 in 10.0 mi Calm Calm - N/A   Clear
5:53 AM 21.9 °F 19.9 °F 92% 30.26 in 10.0 mi Calm Calm - N/A   Clear
6:53 AM 25.0 °F 23.0 °F 92% 30.27 in 10.0 mi Calm Calm - N/A   Clear
7:53 AM 26.1 °F 24.1 °F 92% 30.26 in 10.0 mi Calm Calm - N/A   Clear
8:53 AM 28.9 °F 27.0 °F 92% 30.26 in 10.0 mi Calm Calm - N/A   Clear
9:53 AM 33.1 °F 30.0 °F 89% 30.25 in 10.0 mi Calm Calm - N/A   Clear
10:53 AM 41.0 °F 34.0 °F 76% 30.22 in 10.0 mi Calm Calm - N/A   Clear
11:53 AM 50.0 °F 33.1 °F 52% 30.17 in 10.0 mi South 8.1 mph - N/A   Clear
12:53 PM 52.0 °F 30.0 °F 43% 30.12 in 10.0 mi South 12.7 mph - N/A   Clear
1:53 PM 54.0 °F 28.9 °F 38% 30.06 in 10.0 mi South 12.7 mph 17.3 mph N/A   Clear
2:53 PM 52.0 °F 28.9 °F 41% 30.04 in 10.0 mi South 8.1 mph - N/A   Clear
3:53 PM 51.1 °F 27.0 °F 39% 30.03 in 10.0 mi South 8.1 mph - N/A   Clear
4:53 PM 46.9 °F 28.0 °F 48% 30.02 in 10.0 mi South 8.1 mph - N/A   Clear
5:53 PM 42.1 °F 28.9 °F 60% 30.02 in 10.0 mi Calm Calm - N/A   Clear
6:53 PM 39.0 °F 30.0 °F 70% 30.01 in 10.0 mi Calm Calm - N/A   Partly Cloudy
7:53 PM 36.0 °F 30.0 °F 79% 30.00 in 10.0 mi Calm Calm - N/A   Clear
8:53 PM 32.0 °F 28.0 °F 85% 29.99 in 10.0 mi Calm Calm - N/A   Clear
9:53 PM 37.0 °F 30.0 °F 76% 29.98 in 10.0 mi Calm Calm - N/A   Clear
10:53 PM 33.1 °F 28.0 °F 82% 29.98 in 10.0 mi Calm Calm - N/A   Clear
11:53 PM 32.0 °F 28.0 °F 85% 29.96 in 10.0 mi Calm Calm - N/A   Clear